Location: Central Falls
(41.8900°N, 71.3929°W)
Time: 11:29:44
(UTC+00:00)

Tiros 1 despin weight - Pass Details

Date: 07 December 2023
Orbit: 581 x 625 km, 48.2° (Epoch: 20 February)

Event Time Altitude Azimuth Distance (km) Brightness Sun altitude
Rises 05:13:22 0° 285° (WNW) 2,801 - -69.2°
Reaches altitude 10° 05:16:24 10° 263° (W) 1,903 - -69.0°
Maximum altitude 05:18:59 15° 226° (SW) 1,580 - -68.8°
Drops below altitude 10° 05:21:34 10° 190° (S) 1,909 - -68.5°
Sets 05:24:38 0° 168° (SSE) 2,816 - -68.3°
